Weather History for Thermopolis, WY

Change the Weather History Date:

Wednesday, November 7, 2012

  Actual Average (KWRL) Record (KWRL)
Temperature  
Mean Temperature 48 °F 36 °F  
Max Temperature 55 °F 50 °F 73 °F (1999)
Min Temperature 41 °F 22 °F 5 °F (2003)
Degree Days  
Heating Degree Days 17 29  
Month to date heating degree days 194  
Since 1 July heating degree days 1056  
Cooling Degree Days 0 0  
Month to date cooling degree days 0  
Year to date cooling degree days 535  
Moisture  
Dew Point 20 °F    
Average Humidity 31    
Maximum Humidity 53    
Minimum Humidity 20    
Precipitation  
Precipitation 0.00 in 0.01 in 0.21 in (1998)
Month to date precipitation 0.09  
Year to date precipitation 7.08  
Sea Level Pressure  
Sea Level Pressure 30.11 in    
Wind  
Wind Speed 14 mph ()    
Max Wind Speed 28 mph    
Max Gust Speed 36 mph    
Visibility 10.0 miles    
Events      
T = Trace of Precipitation, MM = Missing Value Source: Averaged Metar Reports

Daily Weather History Graph

Daily Weather History Graph

Search for Another Location

Airport:

Trip Planner

Search our weather history database for the weather conditions in past years. The results will help you decide how hot, cold, wet, or windy it might be!

Date:

Astronomy

Nov. 07, 2012 Rise Set
Actual Time 6:56 AM MST 4:55 PM MST
Civil Twilight 6:26 AM MST 5:26 PM MST
Nautical Twilight 5:52 AM MST 6:00 PM MST
Astronomical Twilight 5:18 AM MST 6:33 PM MST
Moon No Moon Rise 1:17 PM MST (11/7)
Length of Visible Light 10h 59m
Length of Day
9h 59m
Last Quarter, 42% of the Moon is Illuminated
Nov 7
Last Quarter
Nov 13
New
Nov 20
First Quarter
Nov 28
Full
Dec 6
Last Quarter

Hourly Weather History & Observations

Time (MST) Temp. Windchill Dew Point Humidity Pressure Visibility Wind Dir Wind Speed Gust Speed Precip Events Conditions
12:15 AM 44.6 °F 38.4 °F 24.8 °F 46% 30.24 in 10.0 mi SSE 12.7 mph 17.3 mph N/A   Clear
12:35 AM 44.6 °F 38.8 °F 24.8 °F 46% 30.24 in 10.0 mi SSE 11.5 mph 16.1 mph N/A   Clear
12:55 AM 44.6 °F 38.8 °F 23.0 °F 43% 30.23 in 10.0 mi SSE 11.5 mph 19.6 mph N/A   Clear
1:15 AM 48.2 °F - 23.0 °F 37% 30.22 in 10.0 mi SSE 13.8 mph 21.9 mph N/A   Clear
1:35 AM 46.4 °F 42.9 °F 23.0 °F 40% 30.23 in 10.0 mi SE 6.9 mph - N/A   Clear
1:55 AM 46.4 °F 41.1 °F 23.0 °F 40% 30.22 in 10.0 mi SE 11.5 mph 17.3 mph N/A   Clear
2:15 AM 48.2 °F - 21.2 °F 34% 30.21 in 10.0 mi SSE 17.3 mph - N/A   Clear
2:35 AM 48.2 °F - 21.2 °F 34% 30.20 in 10.0 mi SSE 13.8 mph - N/A   Clear
3:15 AM 46.4 °F 40.7 °F 21.2 °F 37% 30.19 in 10.0 mi South 12.7 mph 17.3 mph N/A   Clear
3:35 AM 46.4 °F 41.1 °F 19.4 °F 34% 30.18 in 10.0 mi South 11.5 mph - N/A   Clear
3:55 AM 42.8 °F 38.0 °F 24.8 °F 49% 30.18 in 10.0 mi SSE 8.1 mph - N/A   Clear
4:15 AM 42.8 °F 37.5 °F 23.0 °F 46% 30.17 in 10.0 mi SSE 9.2 mph - N/A   Clear
4:35 AM 41.0 °F 35.2 °F 23.0 °F 49% 30.17 in 10.0 mi SSE 9.2 mph - N/A   Clear
4:55 AM 41.0 °F 34.3 °F 24.8 °F 53% 30.17 in 10.0 mi South 11.5 mph - N/A   Clear
5:15 AM 44.6 °F 37.4 °F 19.4 °F 37% 30.16 in 10.0 mi South 16.1 mph - N/A   Clear
5:35 AM 44.6 °F 37.2 °F 17.6 °F 34% 30.16 in 10.0 mi SSW 17.3 mph - N/A   Clear
5:55 AM 46.4 °F 39.2 °F 14.0 °F 27% 30.16 in 10.0 mi SSW 18.4 mph - N/A   Clear
6:35 AM 46.4 °F 39.5 °F 17.6 °F 32% 30.15 in 10.0 mi South 17.3 mph 24.2 mph N/A   Clear
6:55 AM 44.6 °F 36.9 °F 19.4 °F 37% 30.14 in 10.0 mi South 18.4 mph - N/A   Clear
7:15 AM 44.6 °F 35.9 °F 19.4 °F 37% 30.14 in 10.0 mi SSW 23.0 mph - N/A   Clear
7:35 AM 46.4 °F 39.5 °F 19.4 °F 34% 30.15 in 10.0 mi SW 17.3 mph 26.5 mph N/A   Clear
7:55 AM 46.4 °F 39.2 °F 19.4 °F 34% 30.16 in 10.0 mi SSW 18.4 mph 24.2 mph N/A   Clear
8:15 AM 50.0 °F - 19.4 °F 30% 30.15 in 10.0 mi SW 18.4 mph 26.5 mph N/A   Clear
8:35 AM 51.8 °F - 19.4 °F 28% 30.16 in 10.0 mi SW 23.0 mph 31.1 mph N/A   Clear
9:15 AM 51.8 °F - 19.4 °F 28% 30.15 in 10.0 mi WSW 27.6 mph 34.5 mph N/A   Clear
9:35 AM 51.8 °F - 19.4 °F 28% 30.14 in 10.0 mi WSW 26.5 mph 35.7 mph N/A   Clear
9:55 AM 53.6 °F - 19.4 °F 26% 30.14 in 10.0 mi SW 19.6 mph 29.9 mph N/A   Clear
10:15 AM 51.8 °F - 19.4 °F 28% 30.14 in 10.0 mi SSW 21.9 mph 29.9 mph N/A   Clear
10:35 AM 51.8 °F - 21.2 °F 30% 30.13 in 10.0 mi South 17.3 mph 27.6 mph N/A   Clear
10:55 AM 51.8 °F - 21.2 °F 30% 30.13 in 10.0 mi South 15.0 mph 24.2 mph N/A   Clear
11:15 AM 53.6 °F - 21.2 °F 28% 30.12 in 10.0 mi South 17.3 mph 27.6 mph N/A   Clear
11:35 AM 53.6 °F - 21.2 °F 28% 30.10 in 10.0 mi SSW 19.6 mph 25.3 mph N/A   Clear
11:55 AM 53.6 °F - 21.2 °F 28% 30.10 in 10.0 mi SSW 19.6 mph 26.5 mph N/A   Clear
12:15 PM 53.6 °F - 21.2 °F 28% 30.10 in 10.0 mi SSW 17.3 mph 24.2 mph N/A   Clear
12:35 PM 55.4 °F - 19.4 °F 25% 30.08 in 10.0 mi South 16.1 mph 23.0 mph N/A   Clear
12:55 PM 55.4 °F - 19.4 °F 25% 30.07 in 10.0 mi South 16.1 mph 23.0 mph N/A   Clear
1:15 PM 55.4 °F - 19.4 °F 25% 30.06 in 10.0 mi SSE 15.0 mph 23.0 mph N/A   Clear
1:35 PM 55.4 °F - 19.4 °F 25% 30.06 in 10.0 mi SSE 12.7 mph - N/A   Clear
2:15 PM 55.4 °F - 14.0 °F 20% 30.04 in 10.0 mi SSE 15.0 mph 19.6 mph N/A   Clear
2:35 PM 55.4 °F - 15.8 °F 21% 30.05 in 10.0 mi South 13.8 mph - N/A   Clear
2:55 PM 55.4 °F - 14.0 °F 20% 30.04 in 10.0 mi SSE 15.0 mph 18.4 mph N/A   Clear
3:15 PM 53.6 °F - 15.8 °F 22% 30.04 in 10.0 mi SSE 10.4 mph - N/A   Clear
3:35 PM 53.6 °F - 15.8 °F 22% 30.04 in 10.0 mi SSE 12.7 mph - N/A   Clear
3:55 PM 55.4 °F - 17.6 °F 23% 30.04 in 10.0 mi SSE 12.7 mph - N/A   Clear
4:15 PM 53.6 °F - 17.6 °F 24% 30.05 in 10.0 mi South 15.0 mph 18.4 mph N/A   Clear
4:35 PM 53.6 °F - 17.6 °F 24% 30.04 in 10.0 mi South 16.1 mph 19.6 mph N/A   Clear
4:55 PM 53.6 °F - 19.4 °F 26% 30.04 in 10.0 mi SSW 11.5 mph - N/A   Clear
5:15 PM 51.8 °F - 19.4 °F 28% 30.04 in 10.0 mi SSW 11.5 mph - N/A   Clear
5:35 PM 51.8 °F - 21.2 °F 30% 30.04 in 10.0 mi SW 12.7 mph - N/A   Clear
5:55 PM 51.8 °F - 21.2 °F 30% 30.05 in 10.0 mi SW 9.2 mph - N/A   Clear
6:15 PM 51.8 °F - 21.2 °F 30% 30.05 in 10.0 mi SW 10.4 mph - N/A   Clear
6:35 PM 51.8 °F - 21.2 °F 30% 30.06 in 10.0 mi SW 9.2 mph - N/A   Clear
6:55 PM 51.8 °F - 21.2 °F 30% 30.06 in 10.0 mi SW 9.2 mph - N/A   Clear
7:15 PM 51.8 °F - 21.2 °F 30% 30.06 in 10.0 mi SW 9.2 mph - N/A   Clear
7:35 PM 51.8 °F - 23.0 °F 33% 30.06 in 10.0 mi SW 11.5 mph - N/A   Clear
7:55 PM 51.8 °F - 23.0 °F 33% 30.05 in 10.0 mi SW 16.1 mph 19.6 mph N/A   Clear
8:15 PM 50.0 °F - 21.2 °F 32% 30.05 in 10.0 mi SW 15.0 mph - N/A   Clear
8:35 PM 50.0 °F - 21.2 °F 32% 30.05 in 10.0 mi WSW 17.3 mph 20.7 mph N/A   Clear
9:15 PM 50.0 °F - 21.2 °F 32% 30.05 in 10.0 mi WSW 18.4 mph - N/A   Clear
9:35 PM 50.0 °F - 19.4 °F 30% 30.05 in 10.0 mi WSW 20.7 mph - N/A   Clear
10:15 PM 50.0 °F - 17.6 °F 28% 30.05 in 10.0 mi WSW 18.4 mph - N/A   Clear
10:35 PM 50.0 °F - 17.6 °F 28% 30.05 in 10.0 mi WSW 19.6 mph - N/A   Clear
10:55 PM 50.0 °F - 17.6 °F 28% 30.05 in 10.0 mi WSW 17.3 mph - N/A   Clear
11:15 PM 50.0 °F - 19.4 °F 30% 30.05 in 10.0 mi WSW 16.1 mph - N/A   Clear
11:35 PM 50.0 °F - 19.4 °F 30% 30.05 in 10.0 mi SW 12.7 mph - N/A   Clear
11:55 PM 50.0 °F - 19.4 °F 30% 30.05 in 10.0 mi SW 15.0 mph - N/A   Clear